{"data":{"norad_id":64579,"epoch":"2026-05-25T05:42:02.058048Z","epoch_age_seconds":48297,"freshness":"FRESH","line1":"1 64579U 25135BD  26145.23752382  .00000929  00000+0  94663-4 0  9998","line2":"2 64579  97.7740 259.7709 0004344  78.3148 281.8559 14.93048422 50451","mean_motion":14.93048422,"eccentricity":0.0004344,"inclination_deg":97.774,"raan_deg":259.7709,"arg_perigee_deg":78.3148,"mean_anomaly_deg":281.8559,"bstar":9.4663e-5,"rev_number":5045,"period_min":96.446972434495,"perigee_km":585.41058376958,"apogee_km":591.46314314215,"semimajor_km":6966.5738634559,"source":"CELESTRAK","updated_at":"2026-05-25T13:38:04.623775Z"}}